• In Netherlands
  • List of Countries
  • For 7 days
  • Water Temperature
  • Satellite Maps
  • Weather Map
  • Weather Widgets
  • user-avatar
    Login

    Hourly Weather Mauritius

    Today, 21 September, Thursday

    Time Temperature Precipitation Wind Pressure Humidity
    00:00 +20°C° 0 mm 6 mps 728 mmHg 72%
    01:00 +20°C° 0 mm 6 mps 728 mmHg 72%
    02:00 +20°C° 0 mm 6 mps 728 mmHg 71%
    03:00 +20°C° 0 mm 6 mps 727 mmHg 71%
    04:00 +20°C° 0 mm 6 mps 727 mmHg 73%
    05:00 +20°C° 0 mm 6 mps 727 mmHg 72%
    06:00 +20°C° 0 mm 5 mps 727 mmHg 71%
    07:00 +20°C° 0 mm 5 mps 727 mmHg 71%
    08:00 +20°C° 0 mm 5 mps 727 mmHg 69%
    09:00 +21°C° 0 mm 5 mps 727 mmHg 66%
    10:00 +22°C° 0 mm 5 mps 727 mmHg 64%
    11:00 +22°C° 0 mm 5 mps 727 mmHg 64%
    12:00 +22°C° 0 mm 5 mps 727 mmHg 64%
    13:00 +22°C° 0 mm 5 mps 727 mmHg 64%
    14:00 +22°C° 0 mm 5 mps 727 mmHg 65%
    15:00 +22°C° 0 mm 5 mps 726 mmHg 66%
    16:00 +22°C° 0 mm 5 mps 726 mmHg 67%
    17:00 +22°C° 0 mm 6 mps 726 mmHg 69%
    18:00 +21°C° 0 mm 6 mps 726 mmHg 72%
    19:00 +21°C° 0 mm 6 mps 726 mmHg 75%
    20:00 +21°C° 0.1 mm 6 mps 727 mmHg 75%
    21:00 +21°C° 0.1 mm 7 mps 727 mmHg 76%
    22:00 +21°C° 0.1 mm 7 mps 727 mmHg 76%
    23:00 +21°C° 0.1 mm 7 mps 727 mmHg 76%

    Tomorrow, 22 September, Friday

    Time Temperature Precipitation Wind Pressure Humidity
    00:00 +21°C° 0.1 mm 7 mps 727 mmHg 76%
    01:00 +21°C° 0.1 mm 7 mps 727 mmHg 76%
    02:00 +21°C° 0.1 mm 7 mps 726 mmHg 77%
    03:00 +20°C° 0.1 mm 7 mps 726 mmHg 77%
    04:00 +20°C° 0.1 mm 7 mps 726 mmHg 78%
    05:00 +20°C° 0.1 mm 7 mps 726 mmHg 78%
    06:00 +20°C° 0.1 mm 7 mps 726 mmHg 78%
    07:00 +21°C° 0.1 mm 7 mps 726 mmHg 79%
    08:00 +21°C° 0.1 mm 8 mps 726 mmHg 76%
    09:00 +22°C° 0.1 mm 8 mps 727 mmHg 73%
    10:00 +22°C° 0.1 mm 8 mps 727 mmHg 70%
    11:00 +22°C° 0.3 mm 8 mps 727 mmHg 70%
    12:00 +22°C° 0.3 mm 8 mps 726 mmHg 71%
    13:00 +22°C° 0.3 mm 8 mps 726 mmHg 71%
    14:00 +22°C° 0.4 mm 8 mps 726 mmHg 72%
    15:00 +22°C° 0.4 mm 8 mps 726 mmHg 74%
    16:00 +22°C° 0.4 mm 8 mps 725 mmHg 75%
    17:00 +21°C° 0.3 mm 9 mps 725 mmHg 76%
    18:00 +21°C° 0.3 mm 9 mps 726 mmHg 78%
    19:00 +21°C° 0.3 mm 9 mps 726 mmHg 79%
    20:00 +21°C° 0.6 mm 9 mps 726 mmHg 79%
    21:00 +21°C° 0.6 mm 9 mps 727 mmHg 79%
    22:00 +21°C° 0.6 mm 9 mps 727 mmHg 80%
    23:00 +21°C° 0.5 mm 9 mps 727 mmHg 80%

    Day after tomorrow, 23 September, Saturday

    Time Temperature Precipitation Wind Pressure Humidity
    00:00 +21°C° 0.5 mm 8 mps 727 mmHg 80%
    01:00 +21°C° 0.5 mm 8 mps 727 mmHg 80%
    02:00 +21°C° 0.4 mm 8 mps 726 mmHg 80%
    03:00 +21°C° 0.4 mm 8 mps 726 mmHg 80%
    04:00 +21°C° 0.4 mm 8 mps 726 mmHg 80%
    05:00 +21°C° 0.6 mm 8 mps 726 mmHg 81%
    06:00 +21°C° 0.6 mm 8 mps 726 mmHg 81%
    07:00 +21°C° 0.6 mm 8 mps 726 mmHg 81%
    08:00 +21°C° 0.7 mm 8 mps 727 mmHg 79%
    09:00 +22°C° 0.7 mm 7 mps 727 mmHg 76%
    10:00 +22°C° 0.7 mm 7 mps 727 mmHg 74%
    11:00 +23°C° 0.6 mm 7 mps 727 mmHg 73%
    12:00 +23°C° 0.6 mm 7 mps 727 mmHg 71%
    13:00 +23°C° 0.6 mm 6 mps 727 mmHg 70%
    14:00 +23°C° 0.5 mm 6 mps 726 mmHg 71%
    15:00 +23°C° 0.5 mm 6 mps 726 mmHg 72%
    16:00 +23°C° 0.5 mm 6 mps 726 mmHg 73%
    17:00 +22°C° 0.6 mm 5 mps 726 mmHg 75%
    18:00 +22°C° 0.6 mm 5 mps 726 mmHg 77%
    19:00 +21°C° 0.6 mm 5 mps 726 mmHg 80%
    20:00 +21°C° 0.6 mm 5 mps 727 mmHg 80%
    21:00 +21°C° 0.6 mm 5 mps 727 mmHg 81%
    22:00 +21°C° 0.6 mm 5 mps 728 mmHg 82%
    23:00 +21°C° 0.7 mm 5 mps 727 mmHg 81%

    24 September, Sunday

    Time Temperature Precipitation Wind Pressure Humidity
    00:00 +21°C° 0.7 mm 5 mps 727 mmHg 81%
    01:00 +21°C° 0.7 mm 5 mps 727 mmHg 81%
    02:00 +21°C° 0.3 mm 5 mps 726 mmHg 81%
    03:00 +21°C° 0.3 mm 4 mps 726 mmHg 82%
    04:00 +21°C° 0.3 mm 4 mps 726 mmHg 82%
    05:00 +21°C° 0 mm 4 mps 726 mmHg 82%
    06:00 +21°C° 0 mm 4 mps 726 mmHg 82%
    07:00 +21°C° 0 mm 4 mps 727 mmHg 82%
    08:00 +22°C° 0 mm 4 mps 727 mmHg 79%
    09:00 +23°C° 0 mm 4 mps 727 mmHg 76%
    10:00 +23°C° 0 mm 4 mps 727 mmHg 73%
    11:00 +25°C° 0.2 mm 4 mps 727 mmHg 71%
    12:00 +25°C° 0.2 mm 4 mps 727 mmHg 70%
    13:00 +25°C° 0.2 mm 4 mps 726 mmHg 69%
    14:00 +25°C° 0.6 mm 4 mps 726 mmHg 70%
    15:00 +25°C° 0.6 mm 3 mps 726 mmHg 72%
    16:00 +24°C° 0.6 mm 3 mps 725 mmHg 73%
    17:00 +23°C° 0.5 mm 4 mps 725 mmHg 76%
    18:00 +22°C° 0.5 mm 4 mps 726 mmHg 79%
    19:00 +22°C° 0.5 mm 4 mps 726 mmHg 82%
    20:00 +22°C° 0.2 mm 5 mps 726 mmHg 83%
    21:00 +22°C° 0.2 mm 5 mps 727 mmHg 84%
    22:00 +22°C° 0.2 mm 5 mps 727 mmHg 85%
    23:00 +22°C° 0.2 mm 5 mps 726 mmHg 85%

    25 September, Monday

    Time Temperature Precipitation Wind Pressure Humidity
    00:00 +22°C° 0.2 mm 5 mps 726 mmHg 84%
    01:00 +22°C° 0.2 mm 6 mps 726 mmHg 84%
    02:00 +22°C° 0.7 mm 5 mps 726 mmHg 83%
    03:00 +22°C° 0.7 mm 5 mps 725 mmHg 81%
    04:00 +22°C° 0.7 mm 5 mps 725 mmHg 80%
    05:00 +22°C° 0.4 mm 5 mps 725 mmHg 79%
    06:00 +22°C° 0.4 mm 5 mps 726 mmHg 77%
    07:00 +22°C° 0.4 mm 5 mps 726 mmHg 76%
    08:00 +23°C° 0.2 mm 5 mps 726 mmHg 75%
    09:00 +23°C° 0.2 mm 5 mps 726 mmHg 74%
    10:00 +25°C° 0.2 mm 5 mps 727 mmHg 73%
    11:00 +23°C° 1 mm 5 mps 726 mmHg 74%
    12:00 +23°C° 1 mm 5 mps 726 mmHg 75%
    13:00 +23°C° 1 mm 5 mps 725 mmHg 75%
    14:00 +23°C° 0.5 mm 5 mps 725 mmHg 76%
    15:00 +23°C° 0.5 mm 5 mps 725 mmHg 76%
    16:00 +23°C° 0.5 mm 4 mps 725 mmHg 76%
    17:00 +23°C° 0.1 mm 5 mps 725 mmHg 78%
    18:00 +23°C° 0.1 mm 5 mps 726 mmHg 80%
    19:00 +22°C° 0.1 mm 5 mps 726 mmHg 82%
    20:00 +22°C° 0 mm 5 mps 726 mmHg 82%
    21:00 +22°C° 0 mm 5 mps 727 mmHg 82%
    22:00 +22°C° 0 mm 6 mps 727 mmHg 82%
    23:00 +22°C° 0.1 mm 6 mps 727 mmHg 82%

    26 September, Tuesday

    Time Temperature Precipitation Wind Pressure Humidity
    00:00 +22°C° 0.1 mm 6 mps 726 mmHg 82%
    01:00 +22°C° 0.1 mm 6 mps 726 mmHg 82%
    02:00 +22°C° 0 mm 6 mps 726 mmHg 83%
    03:00 +21°C° 0 mm 6 mps 726 mmHg 83%
    04:00 +21°C° 0 mm 6 mps 726 mmHg 84%
    05:00 +21°C° 0 mm 6 mps 726 mmHg 83%
    06:00 +21°C° 0 mm 7 mps 726 mmHg 83%
    07:00 +22°C° 0 mm 7 mps 727 mmHg 82%
    08:00 +22°C° 0 mm 6 mps 727 mmHg 79%
    09:00 +23°C° 0 mm 6 mps 727 mmHg 77%
    10:00 +24°C° 0 mm 6 mps 727 mmHg 74%
    11:00 +24°C° 0 mm 6 mps 727 mmHg 73%
    12:00 +25°C° 0 mm 5 mps 727 mmHg 72%
    13:00 +25°C° 0 mm 5 mps 726 mmHg 71%
    14:00 +25°C° 0 mm 5 mps 726 mmHg 72%
    15:00 +25°C° 0 mm 5 mps 726 mmHg 72%
    16:00 +24°C° 0 mm 6 mps 726 mmHg 73%
    17:00 +23°C° 0 mm 6 mps 726 mmHg 76%
    18:00 +23°C° 0 mm 6 mps 727 mmHg 79%
    19:00 +22°C° 0 mm 6 mps 727 mmHg 81%
    20:00 +22°C° 0.1 mm 7 mps 727 mmHg 82%
    21:00 +22°C° 0.1 mm 7 mps 728 mmHg 82%
    22:00 +22°C° 0.1 mm 7 mps 728 mmHg 82%
    23:00 +22°C° 0 mm 7 mps 728 mmHg 82%
    Show more